Tracking 35055 objects as of 19-Aug-2026
HD Live streaming from Space Station
objects crossing your sky now

ELECTRON R/B


ELECTRON R/B is no longer on orbit


NORAD ID: 58994
Int'l Code: 2024-034C
Launch date: February 18, 2024
Source: United States (US)
Launch site: Rocket Lab Launch Complex (RLLC)
Decay date: 2024-03-06

Note: This is a ROCKET BODY
Your satellite tracking list
Your tracking list is empty




NASA's NSSDC Master Catalog

Two Line Element Set (TLE):
1 58994U 24034C   24066.05221225  .44421753  27676-5  27867-3 0  9991
2 58994  98.1966  36.9722 0024692 189.7503 242.8127 16.52706715  2593
Source of the keplerian elements: AFSPC